Location: Fort Worth, Tx
(32.7431°N, 97.3695°W)
Time: 17:33:02
(UTC-04:00)

Max Valier Satellite - Visible Passes

Search period start: 30 March 2023 00:00
Search period end: 09 April 2023 00:00
Orbit: 454 x 467 km, 97.2° (Epoch: 30 March)

Date Brightness Start Highest point End Pass type
(mag) Time Alt. Az. Time Alt. Az. Time Alt. Az.
30 Mar ? 21:10:42 10° ESE 21:12:36 14° ENE 21:14:31 10° NE visible
30 Mar ? 22:43:00 12° SW 22:45:21 22° W 22:48:03 10° NW visible
31 Mar ? 22:10:52 15° S 22:13:34 67° W 22:16:58 10° NNW visible
01 Apr ? 21:38:41 10° SE 21:41:50 36° ENE 21:45:00 10° N visible
02 Apr ? 22:40:17 11° SSW 22:42:54 23° W 22:45:42 10° NW visible
03 Apr ? 22:08:00 13° S 22:10:56 74° W 22:14:21 10° NNW visible
04 Apr ? 21:35:58 10° SE 21:39:04 33° ENE 21:42:10 10° N visible
05 Apr ? 22:37:05 10° SSW 22:39:56 25° W 22:42:50 10° NW visible
06 Apr ? 22:04:37 11° S 22:07:49 83° WSW 22:11:14 10° NNW visible
07 Apr ? 21:32:46 10° SE 21:35:47 30° ENE 21:38:49 10° NNE visible
08 Apr ? 22:33:28 10° SSW 22:36:27 28° W 22:39:28 10° NW visible
